Content
SEND FEEDBACK

Daily
Averages
Monthly
Summary
United States of America

TRUCKEE, CALIFORNIA


Home > North America > United States > California
Elevation: 5966 feet     Latitude: 39 20N     Longitude: 120 11W

WEATHER
 
SELECT A DAY
Number of Records: 282,275;   Date Range: 1/1/95 - 7/26/14
 
SHARE

PRINT THIS DATA

[ ← Previous Day ]
WEATHER ALMANAC - SEPTEMBER 8, 2013
[ Next Day → ]
[ °C ]   °F
Weather ElementAverageHighLow
Temperature54 °F80.6 °F (3:55 pm)32 °F (6:35 am)
Dewpoint31.5 °F35.6 °F (1:35 am)24.8 °F (11:55 am)
Humidity50.9 %100 % (6:35 am)14 % (11:55 am)
Barometer30.18 in30.22 in (12:55 am)30.11 in (4:55 pm)
Wind Speed3.7 mph15 mph (12:55 pm)
Wind Gust19.6 mph (12:55 pm)
Weather ElementAverage
Visibility10 mi
Wind DirectionESE (120.6 °)

Weather ElementTotal
Precipitation---
Heating Degree Days8.7 (Base 65)
Growing Degree Days6.3 (Base 50)
Averaged from 50 records on September 8, 2013
WEATHER CONDITIONS BREAKOUT
WIND DIRECTION BREAKOUT
WEATHER BY HOUR - SEPTEMBER 8, 2013
[ °C ]   °F
Local TimeTemperatureDewpointHumidityBarometerVisibilityWind DirectionWind SpeedGust SpeedPrecipitationEventsConditions
12:35 AM44.6 °F32.0 °F61 %30.21 in10.0 miESE (120°)6.9 mphClear
12:55 AM41.0 °F32.0 °F70 %30.22 in10.0 miCalmClear
1:15 AM42.8 °F33.8 °F70 %30.21 in10.0 miCalmClear
1:35 AM46.4 °F35.6 °F66 %30.21 in10.0 miCalmClear
1:55 AM44.6 °F33.8 °F66 %30.21 in10.0 miCalmClear
2:15 AM41.0 °F32.0 °F70 %30.21 in10.0 miSE (130°)3.5 mphClear
2:35 AM41.0 °F32.0 °F70 %30.21 in10.0 miCalmClear
2:55 AM39.2 °F32.0 °F75 %30.21 in10.0 miSW (220°)3.5 mphClear
3:15 AM39.2 °F32.0 °F75 %30.21 in10.0 miCalmClear
3:35 AM39.2 °F32.0 °F75 %30.21 in10.0 miCalmClear
3:55 AM35.6 °F32.0 °F87 %30.21 in10.0 miSouth (190°)3.5 mphClear
4:15 AM37.4 °F32.0 °F81 %30.21 in10.0 miCalmClear
4:35 AM39.2 °F32.0 °F75 %30.21 in10.0 miCalmClear
4:55 AM35.6 °F32.0 °F87 %30.21 in10.0 miCalmClear
5:15 AM37.4 °F32.0 °F81 %30.21 in10.0 miCalmClear
5:35 AM35.6 °F32.0 °F87 %30.21 in10.0 miCalmClear
5:55 AM37.4 °F32.0 °F81 %30.21 in10.0 miCalmClear
6:15 AM35.6 °F32.0 °F87 %30.22 in10.0 miCalmClear
6:35 AM32.0 °F32.0 °F100 %30.22 in10.0 miSouth (180°)3.5 mphClear
6:55 AM33.8 °F32.0 °F93 %30.22 in10.0 miCalmClear
7:55 AM41.0 °F32.0 °F70 %30.22 in10.0 miCalmClear
8:50 AM48.2 °F33.8 °F58 %30.22 in10.0 miCalmClear
9:50 AM57.2 °F35.6 °F44 %30.21 in10.0 miCalmClear
10:45 AM68.0 °F33.8 °F28 %30.19 in10.0 miNNW (340°)3.5 mphClear
11:55 AM77.0 °F24.8 °F14 %30.17 in10.0 miWNW (300°)11.5 mph18.4 mphClear
12:55 PM78.8 °F24.8 °F14 %30.16 in10.0 miSW (230°)15.0 mph19.6 mphClear
1:55 PM78.8 °F26.6 °F15 %30.15 in10.0 miWNW (290°)12.7 mph18.4 mphPartly Cloudy
2:45 PM78.8 °F26.6 °F15 %30.14 in10.0 miWNW (300°)10.4 mph16.1 mphPartly Cloudy
3:55 PM80.6 °F26.6 °F14 %30.12 in10.0 miWest (270°)9.2 mphPartly Cloudy
4:55 PM77.0 °F28.4 °F17 %30.11 in10.0 miWNW (300°)10.4 mphClear
5:45 PM77.0 °F30.2 °F18 %30.11 in10.0 miWNW (300°)11.5 mph18.4 mphClear
5:55 PM77.0 °F32.0 °F19 %30.11 in10.0 miWNW (300°)12.7 mph17.3 mphClear
6:15 PM75.2 °F32.0 °F21 %30.12 in10.0 miWest (260°)8.1 mphClear
6:35 PM75.2 °F32.0 °F21 %30.12 in10.0 miWest (280°)8.1 mphClear
6:55 PM73.4 °F32.0 °F22 %30.12 in10.0 miWNW (290°)10.4 mphClear
7:15 PM71.6 °F32.0 °F23 %30.12 in10.0 miWest (280°)8.1 mphClear
7:35 PM71.6 °F32.0 °F23 %30.13 in10.0 miWNW (300°)6.9 mphClear
7:55 PM68.0 °F32.0 °F26 %30.14 in10.0 miCalmClear
8:15 PM62.6 °F32.0 °F32 %30.15 in10.0 miSE (140°)4.6 mphClear
8:35 PM59.0 °F32.0 °F36 %30.15 in10.0 miSouth (180°)4.6 mphClear
8:55 PM55.4 °F30.2 °F38 %30.15 in10.0 miSSE (150°)3.5 mphClear
9:15 PM57.2 °F32.0 °F38 %30.16 in10.0 miSSE (150°)3.5 mphClear
9:35 PM55.4 °F32.0 °F41 %30.16 in10.0 miSouth (190°)3.5 mphClear
9:55 PM57.2 °F32.0 °F38 %30.16 in10.0 miCalmClear
10:15 PM53.6 °F32.0 °F44 %30.17 in10.0 miCalmClear
10:35 PM53.6 °F32.0 °F44 %30.17 in10.0 miCalmClear
10:55 PM51.8 °F32.0 °F47 %30.17 in10.0 miSE (130°)4.6 mphClear
11:15 PM48.2 °F32.0 °F54 %30.17 in10.0 miCalmClear
11:35 PM46.4 °F32.0 °F57 %30.18 in10.0 miSSW (210°)3.5 mphClear
11:55 PM46.4 °F32.0 °F57 %30.18 in10.0 miCalmClear
Hourly data recorded from KTRK, located miles away from Truckee, California







STORIES FROM OUR PARTNERS